Overview Statistics Trail Chart Weather Telemetry Raw packets
 

This is the latest recevied weather packets stored in our database for station/object 4S6DRJ-13. If no packets are shown the sender has not sent any weather packets the latest 10 day(s).

<< 124 125 126 127 128 129 130 >>
Time Temp. Humidity Pressure Rain* Wind** Luminosity Snow
1788271869 28.33° C 82% 1010.1 hPa 0 mm 0.45 m/s, 247° 0 W/m² -
1788271808 28.33° C 82% 1010.4 hPa 0 mm 0.45 m/s, 225° 0 W/m² -
1788271747 28.33° C 82% 1010.2 hPa 0 mm 0.89 m/s, 207° 0 W/m² -
1788271686 28.33° C 82% 1010.2 hPa 0 mm 0.89 m/s, 234° 0 W/m² -
1788271625 28.33° C 82% 1010.2 hPa 0 mm 0.89 m/s, 221° 0 W/m² -
1788271564 28.33° C 82% 1010.2 hPa 0 mm 0.45 m/s, 207° 0 W/m² -
1788271503 28.33° C 82% 1010.1 hPa 0 mm 0.89 m/s, 244° 0 W/m² -
1788271442 28.33° C 82% 1010.2 hPa 0 mm 1.34 m/s, 241° 0 W/m² -
1788271381 28.33° C 82% 1010.2 hPa 0 mm 0.45 m/s, 204° 0 W/m² -
1788271320 28.33° C 82% 1010.3 hPa 0 mm 1.34 m/s, 265° 0 W/m² -
1788271259 28.33° C 82% 1010.1 hPa 0 mm 0.89 m/s, 264° 0 W/m² -
1788271198 28.33° C 82% 1010.1 hPa 0 mm 1.34 m/s, 221° 0 W/m² -
1788271137 28.33° C 82% 1010.1 hPa 0 mm 0.45 m/s, 219° 0 W/m² -
1788271076 28.33° C 81% 1010.2 hPa 0 mm 1.34 m/s, 249° 0 W/m² -
1788271015 28.33° C 81% 1010 hPa 0 mm 0.89 m/s, 213° 0 W/m² -
1788270954 28.33° C 81% 1010.3 hPa 0 mm 0.45 m/s, 239° 0 W/m² -
1788270893 28.33° C 81% 1010 hPa 0 mm 0.45 m/s, 242° 0 W/m² -
1788270832 28.33° C 81% 1010.1 hPa 0 mm 0.89 m/s, 245° 0 W/m² -
1788270771 28.33° C 81% 1010.1 hPa 0 mm 1.79 m/s, 181° 0 W/m² -
1788270710 28.33° C 81% 1010 hPa 0 mm 0.89 m/s, 86° 0 W/m² -
1788270649 28.89° C 81% 1010 hPa 0 mm 0.45 m/s, 156° 0 W/m² -
1788270588 28.89° C 81% 1010.1 hPa 0 mm 0.89 m/s, 325° 0 W/m² -
1788270527 28.89° C 81% 1010 hPa 0 mm 0.89 m/s, 204° 0 W/m² -
1788270466 28.89° C 81% 1010.1 hPa 0 mm 0 m/s 0 W/m² -
1788270405 28.89° C 81% 1010 hPa 0 mm 0.89 m/s, 219° 0 W/m² -

* Rain latest hour (hover to see other rain measurements)
** Current wind speed in m/s (hover to see current wind gust speed)